TimeEDT,TemperatureF,Dew PointF,Humidity,Sea Level PressureIn,VisibilityMPH,Wind Direction,Wind SpeedMPH,Gust SpeedMPH,PrecipitationIn,Events,Conditions,WindDirDegrees,DateUTC
12:51 AM,50.0,44.6,82,29.89,10.0,WSW,4.6,-,N/A,,Clear,240,2012-10-07 04:51:00
1:51 AM,46.9,44.1,90,29.92,10.0,West,3.5,-,N/A,,Clear,280,2012-10-07 05:51:00
2:51 AM,46.4,42.8,87,29.93,10.0,West,4.6,-,N/A,,Clear,260,2012-10-07 06:51:00
3:51 AM,43.0,39.0,86,29.96,10.0,West,5.8,-,N/A,,Clear,280,2012-10-07 07:51:00
4:51 AM,43.0,39.9,89,29.96,10.0,Calm,Calm,-,N/A,,Clear,0,2012-10-07 08:51:00
5:51 AM,41.0,37.9,89,29.98,10.0,West,6.9,-,N/A,,Clear,280,2012-10-07 09:51:00
6:51 AM,41.0,39.0,93,30.01,10.0,West,6.9,-,N/A,,Clear,280,2012-10-07 10:51:00
7:51 AM,45.0,39.9,82,30.03,10.0,West,6.9,-,N/A,,Clear,280,2012-10-07 11:51:00
8:51 AM,48.0,42.1,80,30.04,10.0,Calm,Calm,-,N/A,,Clear,0,2012-10-07 12:51:00
9:51 AM,54.0,43.0,66,30.04,10.0,Calm,Calm,-,N/A,,Clear,0,2012-10-07 13:51:00
10:51 AM,55.9,39.9,55,30.04,10.0,NE,3.5,-,N/A,,Clear,50,2012-10-07 14:51:00
11:51 AM,57.0,42.1,57,30.04,10.0,NE,4.6,-,N/A,,Clear,50,2012-10-07 15:51:00
12:51 PM,55.9,39.9,55,30.03,10.0,NE,4.6,-,N/A,,Scattered Clouds,50,2012-10-07 16:51:00
1:51 PM,55.9,41.0,57,30.03,10.0,South,8.1,-,N/A,,Scattered Clouds,180,2012-10-07 17:51:00
2:51 PM,55.9,43.0,62,30.02,10.0,SE,6.9,-,N/A,,Clear,130,2012-10-07 18:51:00
3:51 PM,55.9,39.9,55,30.02,10.0,SSE,5.8,-,N/A,,Clear,150,2012-10-07 19:51:00
4:51 PM,55.9,42.1,60,30.02,10.0,SW,9.2,-,N/A,,Clear,220,2012-10-07 20:51:00
5:51 PM,54.0,42.1,64,30.02,10.0,SW,6.9,-,N/A,,Clear,220,2012-10-07 21:51:00
6:51 PM,53.1,43.0,69,30.02,10.0,WSW,3.5,-,N/A,,Clear,250,2012-10-07 22:51:00
7:51 PM,51.1,44.1,77,30.02,10.0,Calm,Calm,-,N/A,,Mostly Cloudy,0,2012-10-07 23:51:00
8:51 PM,51.1,44.1,77,30.00,10.0,Calm,Calm,-,N/A,,Overcast,0,2012-10-08 00:51:00
9:51 PM,52.0,44.1,74,30.02,10.0,WSW,3.5,-,N/A,,Overcast,250,2012-10-08 01:51:00
10:51 PM,50.0,45.0,83,30.04,10.0,West,8.1,-,0.00,Rain,Light Rain,270,2012-10-08 02:51:00
11:51 PM,48.0,45.0,89,30.05,5.0,West,6.9,-,0.04,Rain,Rain,280,2012-10-08 03:51:00